Location: Bagnolo San Vito
(45.0833°N, 10.8833°E)
Time: 23:26:58
(UTC+00:00)

Cosmos 1633 Rocket - Pass Details

Date: 03 March 2021
Orbit: 606 x 624 km, 82.5° (Epoch: 17 April)

Event Time Altitude Azimuth Distance (km) Brightness Sun altitude
Rises 17:55:31 0° 191° (S) 2,888 6.6 -9.4°
Reaches altitude 10° 17:57:44 10° 192° (SSW) 1,989 5.8 -9.8°
Maximum altitude 18:02:09 77° 279° (W) 645 3.3 -10.6°
Drops below altitude 10° 18:06:36 10° 6° (N) 2,008 5.6 -11.4°
Sets 18:08:51 0° 8° (N) 2,919 6.5 -11.8°
